2023/09/19 00:00:00, 1.9,21.1
2023/09/19 00:10:00, 2.2,20.9
2023/09/19 00:20:00, 2.5,21.1
2023/09/19 00:30:00, 2.8,20.9
2023/09/19 00:40:00, 3.0,20.9
2023/09/19 00:50:00, 3.0,20.8
2023/09/19 01:00:00, 2.9,20.8
2023/09/19 01:10:00, 2.8,20.5
2023/09/19 01:20:00, 2.7,20.5
2023/09/19 01:30:00, 2.3,20.6
2023/09/19 01:40:00, 1.5,20.4
2023/09/19 01:50:00, 1.2,21.0
2023/09/19 02:00:00, 0.7,20.7
2023/09/19 02:10:00, 0.5,20.4
2023/09/19 02:20:00, 0.4,20.3
2023/09/19 02:30:00, 0.3,20.4
2023/09/19 02:40:00, 0.3,20.2
2023/09/19 02:50:00, 0.3,20.7
2023/09/19 03:00:00, 0.3,20.4
2023/09/19 03:10:00, 0.3,20.4
2023/09/19 03:20:00, 0.4,20.4
2023/09/19 03:30:00, 0.3,20.4
2023/09/19 03:40:00, 0.2,20.4
2023/09/19 03:50:00, 0.3,20.4
2023/09/19 04:00:00, 0.3,20.4
2023/09/19 04:10:00, 0.2,20.4
2023/09/19 04:20:00, 0.3,20.7
2023/09/19 04:30:00, 0.3,20.4
2023/09/19 04:40:00, 0.3,20.4
2023/09/19 04:50:00, 0.2,20.4
2023/09/19 05:00:00, 0.3,20.4
2023/09/19 05:10:00, 0.4,20.4
2023/09/19 05:20:00, 0.4,20.4
2023/09/19 05:30:00, 0.3,20.5
2023/09/19 05:40:00, 0.3,20.5
2023/09/19 05:50:00, 0.3,20.5
2023/09/19 06:00:00, 0.4,20.5
2023/09/19 06:10:00, 0.8,20.8
2023/09/19 06:20:00, 1.9,20.9
2023/09/19 06:30:00, 2.6,21.2
2023/09/19 06:40:00, 2.9,21.3
2023/09/19 06:50:00, 3.0,21.5
2023/09/19 07:00:00, 2.7,21.8
2023/09/19 07:10:00, 2.0,22.5
2023/09/19 07:20:00, 1.2,24.4
2023/09/19 07:30:00, 0.5,25.3
2023/09/19 07:40:00, 0.5,27.0
2023/09/19 07:50:00, 0.5,28.1
2023/09/19 08:00:00, 0.5,29.3
2023/09/19 08:10:00, 0.5,29.6
2023/09/19 08:20:00, 0.5,30.9
2023/09/19 08:30:00, 0.5,31.2
2023/09/19 08:40:00, 0.6,31.6
2023/09/19 08:50:00, 0.8,32.7
2023/09/19 09:00:00, 1.0,32.2
2023/09/19 09:10:00, 1.2,32.9
2023/09/19 09:20:00, 2.7,33.4
2023/09/19 09:30:00, 3.6,32.5
2023/09/19 09:40:00, 5.0,32.2
2023/09/19 09:50:00, 6.5,32.1
2023/09/19 10:00:00, 5.8,31.3
2023/09/19 10:10:00, 5.2,32.1
2023/09/19 10:20:00, 4.7,30.2
2023/09/19 10:30:00, 5.1,29.5
2023/09/19 10:40:00, 5.3,29.2
2023/09/19 10:50:00, 5.6,29.0
2023/09/19 11:00:00, 7.1,29.1
2023/09/19 11:10:00, 2.2,29.7
2023/09/19 11:20:00, 0.7,28.9
2023/09/19 11:30:00, 7.3,29.6
2023/09/19 11:40:00, 6.4,30.3
2023/09/19 11:50:00, 6.3,29.0
2023/09/19 12:00:00, 5.6,29.6
2023/09/19 12:10:00, 5.0,30.1
2023/09/19 12:20:00, 4.9,29.5
2023/09/19 12:30:00, 4.8,28.6
2023/09/19 12:40:00, 4.3,28.2
2023/09/19 12:50:00, 4.0,28.6
2023/09/19 13:00:00, 4.1,30.7
2023/09/19 13:10:00, 4.5,29.3
2023/09/19 13:20:00, 4.9,28.7
2023/09/19 13:30:00, 5.3,28.8
2023/09/19 13:40:00, 5.3,28.2
2023/09/19 13:50:00, 5.4,28.2
2023/09/19 14:00:00, 4.8,28.2
2023/09/19 14:10:00, 4.4,28.0
2023/09/19 14:20:00, 4.3,27.1
2023/09/19 14:30:00, 3.9,26.4
2023/09/19 14:40:00, 2.2,25.9
2023/09/19 14:50:00, 0.3,24.8
2023/09/19 15:00:00, 0.3,24.5
2023/09/19 15:10:00, 0.4,24.2
2023/09/19 15:20:00, 0.5,24.5
2023/09/19 15:30:00, 0.5,25.3
2023/09/19 15:40:00, 0.5,26.1
2023/09/19 15:50:00, 0.5,26.0
2023/09/19 16:00:00, 0.5,26.9
2023/09/19 16:10:00, 0.5,27.1
2023/09/19 16:20:00, 0.5,26.9
2023/09/19 16:30:00, 0.5,27.2
2023/09/19 16:40:00, 0.6,26.8
2023/09/19 16:50:00, 0.6,26.3
2023/09/19 17:00:00, 0.5,26.8
2023/09/19 17:10:00, 0.5,25.4
2023/09/19 17:20:00, 0.5,25.0
2023/09/19 17:30:00, 0.5,24.3
2023/09/19 17:40:00, 0.6,24.6
2023/09/19 17:50:00, 0.6,24.1
2023/09/19 18:00:00, 0.5,24.1
2023/09/19 18:10:00, 0.5,24.2
2023/09/19 18:20:00, 0.5,24.0
2023/09/19 18:30:00, 0.4,23.8
2023/09/19 18:40:00, 0.5,23.5
2023/09/19 18:50:00, 0.5,23.4
2023/09/19 19:00:00, 0.5,23.3
2023/09/19 19:10:00, 0.4,22.9
2023/09/19 19:20:00, 0.4,22.8
2023/09/19 19:30:00, 0.4,22.8
2023/09/19 19:40:00, 0.4,22.7
2023/09/19 19:50:00, 0.4,22.6
2023/09/19 20:00:00, 0.5,22.8
2023/09/19 20:10:00, 0.5,22.8
2023/09/19 20:20:00, 0.5,22.6
2023/09/19 20:30:00, 0.5,22.7
2023/09/19 20:40:00, 0.4,22.8
2023/09/19 20:50:00, 0.5,22.7
2023/09/19 21:00:00, 0.4,22.6
2023/09/19 21:10:00, 0.4,22.5
2023/09/19 21:20:00, 0.5,22.4
2023/09/19 21:30:00, 0.5,22.5
2023/09/19 21:40:00, 0.5,22.3
2023/09/19 21:50:00, 0.4,22.4
2023/09/19 22:00:00, 0.5,22.3
2023/09/19 22:10:00, 0.5,22.5
2023/09/19 22:20:00, 0.4,22.1
2023/09/19 22:30:00, 0.5,22.2
2023/09/19 22:40:00, 0.5,22.0
2023/09/19 22:50:00, 0.4,21.9
2023/09/19 23:00:00, 0.5,21.7
2023/09/19 23:10:00, 0.4,21.9
2023/09/19 23:20:00, 0.4,21.8
2023/09/19 23:30:00, 0.4,21.8
2023/09/19 23:40:00, 0.4,21.8
2023/09/19 23:50:00, 0.5,21.8
